OMD207 KDFW-KMZJ

Flight info

Callsign OMD207
Flight time N/A
Altitude 38000
Route WSTEX2 CIKAN EWM TUS
Aircraft A21N/M-SDE2E3FGHIRWXY/LB1

Departure

Time N/A
Airport Dallas Fort Worth International Airport (KDFW)

Arrival

Time 2026-05-08 02:23
Airport Pinal Airpark (KMZJ)
Time Latitude Longitude Altitude Speed Heading
2026-05-08 01:11 32.26996 -103.10587 37949 ft 359 kts 257°
2026-05-08 01:11 32.26738 -103.13521 37958 ft 359 kts 257°
2026-05-08 01:12 32.26218 -103.19422 37945 ft 362 kts 257°
2026-05-08 01:12 32.25694 -103.25337 37944 ft 362 kts 257°
2026-05-08 01:13 32.25167 -103.31254 37944 ft 362 kts 257°
2026-05-08 01:13 32.24640 -103.37135 37941 ft 362 kts 257°
2026-05-08 01:14 32.24106 -103.43055 37944 ft 362 kts 257°
2026-05-08 01:14 32.23571 -103.48964 37944 ft 362 kts 257°
2026-05-08 01:15 32.23033 -103.54882 37940 ft 367 kts 257°
2026-05-08 01:15 32.22483 -103.60879 37939 ft 368 kts 257°
2026-05-08 01:16 32.21936 -103.66881 37930 ft 368 kts 257°
2026-05-08 01:16 32.21382 -103.72882 37929 ft 368 kts 257°
2026-05-08 01:17 32.20824 -103.78880 37923 ft 368 kts 257°
2026-05-08 01:17 32.20261 -103.84839 37922 ft 367 kts 257°
2026-05-08 01:18 32.19693 -103.90865 37926 ft 372 kts 257°
2026-05-08 01:18 32.19120 -103.96934 37917 ft 373 kts 257°
2026-05-08 01:19 32.18548 -104.02978 37918 ft 373 kts 257°
2026-05-08 01:19 32.17958 -104.09054 37971 ft 373 kts 257°
2026-05-08 01:20 32.17366 -104.15129 37987 ft 373 kts 257°
2026-05-08 01:20 32.16792 -104.21205 37989 ft 372 kts 257°
2026-05-08 01:21 32.16204 -104.27319 37995 ft 376 kts 258°
2026-05-08 01:21 32.15608 -104.33463 37987 ft 377 kts 258°
2026-05-08 01:22 32.15011 -104.39567 37978 ft 377 kts 258°
2026-05-08 01:22 32.14408 -104.45706 37963 ft 376 kts 258°
2026-05-08 01:23 32.13804 -104.51823 37952 ft 375 kts 257°
2026-05-08 01:23 32.13193 -104.57947 37932 ft 376 kts 257°
2026-05-08 01:24 32.12588 -104.64023 37907 ft 376 kts 257°
2026-05-08 01:24 32.11975 -104.70149 37908 ft 376 kts 257°
2026-05-08 01:25 32.11357 -104.76269 37916 ft 376 kts 257°
2026-05-08 01:25 32.10738 -104.82381 37919 ft 375 kts 257°
2026-05-08 01:26 32.10114 -104.88482 37915 ft 375 kts 257°
2026-05-08 01:26 32.09497 -104.94532 37951 ft 373 kts 258°
2026-05-08 01:27 32.08870 -105.00595 37905 ft 373 kts 258°
2026-05-08 01:27 32.08241 -105.06664 37900 ft 373 kts 258°
2026-05-08 01:28 32.07608 -105.12731 37886 ft 373 kts 258°
2026-05-08 01:28 32.06981 -105.18759 37887 ft 373 kts 258°
2026-05-08 01:29 32.06358 -105.24734 37885 ft 373 kts 258°
2026-05-08 01:29 32.05708 -105.30804 37908 ft 373 kts 257°
2026-05-08 01:30 32.05054 -105.36858 37879 ft 373 kts 257°
2026-05-08 01:30 32.04419 -105.42882 37876 ft 372 kts 258°
2026-05-08 01:31 32.03780 -105.48929 37885 ft 372 kts 258°
2026-05-08 01:31 32.03140 -105.54981 37884 ft 372 kts 258°
2026-05-08 01:32 32.02492 -105.60994 37882 ft 372 kts 257°
2026-05-08 01:32 32.01837 -105.67046 37895 ft 375 kts 258°
2026-05-08 01:33 32.01175 -105.73158 37889 ft 378 kts 257°
2026-05-08 01:33 32.00508 -105.79244 37892 ft 378 kts 258°
2026-05-08 01:34 31.99839 -105.85356 37876 ft 378 kts 258°
2026-05-08 01:34 31.99171 -105.91452 37879 ft 378 kts 257°
2026-05-08 01:35 31.98493 -105.97599 37875 ft 378 kts 258°
2026-05-08 01:35 31.97809 -106.03745 37890 ft 381 kts 257°
2026-05-08 01:36 31.97119 -106.09936 37896 ft 381 kts 258°
2026-05-08 01:36 31.96424 -106.16119 37921 ft 381 kts 258°
2026-05-08 01:37 31.95721 -106.22247 37940 ft 380 kts 257°
2026-05-08 01:37 31.95216 -106.28466 37958 ft 386 kts 265°
2026-05-08 01:38 31.95498 -106.34795 37977 ft 387 kts 267°
2026-05-08 01:38 31.95820 -106.41159 37971 ft 391 kts 267°
2026-05-08 01:39 31.96126 -106.47513 37956 ft 391 kts 267°
2026-05-08 01:39 31.96429 -106.53917 37971 ft 392 kts 267°
2026-05-08 01:40 31.96680 -106.59289 37995 ft 398 kts 267°
2026-05-08 01:40 31.97016 -106.66448 38007 ft 400 kts 267°
2026-05-08 01:41 31.97312 -106.72998 38014 ft 401 kts 267°
2026-05-08 01:41 31.97604 -106.79528 37989 ft 402 kts 267°
2026-05-08 01:42 31.97897 -106.86104 37958 ft 402 kts 267°
2026-05-08 01:42 31.98190 -106.92677 37858 ft 402 kts 267°
2026-05-08 01:43 31.98482 -106.99252 37852 ft 402 kts 267°
2026-05-08 01:43 31.98765 -107.05779 37854 ft 402 kts 268°
2026-05-08 01:44 31.99045 -107.12404 37833 ft 407 kts 267°
2026-05-08 01:44 31.99331 -107.19073 37808 ft 408 kts 267°
2026-05-08 01:45 31.99612 -107.25743 37804 ft 408 kts 267°
2026-05-08 01:45 31.99886 -107.32339 38216 ft 392 kts 267°
2026-05-08 01:45 32.00022 -107.35278 40373 ft 331 kts 267°
2026-05-08 01:46 32.00137 -107.37793 42092 ft 303 kts 267°
2026-05-08 01:46 32.00212 -107.40458 40942 ft 349 kts 265°
2026-05-08 01:46 32.00212 -107.43464 39667 ft 380 kts 264°
2026-05-08 01:46 32.00225 -107.46648 38658 ft 398 kts 268°
2026-05-08 01:47 32.00443 -107.49934 38205 ft 405 kts 269°
2026-05-08 01:47 32.00650 -107.53216 38005 ft 408 kts 269°
2026-05-08 01:47 32.00824 -107.56552 37912 ft 408 kts 268°
2026-05-08 01:48 32.01243 -107.66564 37887 ft 408 kts 267°
2026-05-08 01:48 32.01483 -107.72965 37891 ft 408 kts 267°
2026-05-08 01:49 32.01720 -107.79602 37897 ft 411 kts 268°
2026-05-08 01:49 32.01976 -107.86340 37819 ft 412 kts 268°
2026-05-08 01:50 32.02222 -107.93057 37815 ft 409 kts 268°
2026-05-08 01:50 32.02464 -107.99744 37813 ft 408 kts 268°
2026-05-08 01:51 32.02702 -108.06430 37814 ft 408 kts 268°
2026-05-08 01:51 32.02922 -108.12721 37813 ft 408 kts 268°
2026-05-08 01:52 32.03147 -108.19420 37811 ft 408 kts 268°
2026-05-08 01:52 32.03369 -108.26092 37819 ft 408 kts 267°
2026-05-08 01:53 32.03595 -108.32772 37823 ft 407 kts 268°
2026-05-08 01:53 32.03810 -108.39376 37821 ft 405 kts 267°
2026-05-08 01:54 32.04027 -108.46025 37823 ft 409 kts 268°
2026-05-08 01:54 32.04241 -108.52738 37842 ft 407 kts 268°
2026-05-08 01:55 32.04407 -108.58104 37850 ft 407 kts 268°
2026-05-08 01:55 32.04632 -108.65595 37874 ft 412 kts 268°
2026-05-08 01:56 32.04793 -108.71245 37871 ft 411 kts 268°
2026-05-08 01:56 32.05005 -108.77759 37817 ft 409 kts 268°
2026-05-08 01:57 32.05212 -108.84505 37819 ft 413 kts 268°
2026-05-08 01:57 32.05392 -108.91194 37814 ft 406 kts 268°
2026-05-08 01:58 32.05579 -108.97928 37820 ft 413 kts 268°
2026-05-08 01:58 32.05756 -109.04536 37827 ft 414 kts 268°
2026-05-08 01:59 32.05943 -109.11266 37826 ft 414 kts 268°
2026-05-08 01:59 32.06132 -109.18069 37839 ft 417 kts 268°
2026-05-08 02:00 32.06315 -109.24827 37832 ft 406 kts 268°
2026-05-08 02:00 32.06482 -109.31594 37856 ft 417 kts 268°
2026-05-08 02:01 32.06645 -109.38375 37824 ft 417 kts 268°
2026-05-08 02:01 32.06798 -109.45196 37837 ft 417 kts 268°
2026-05-08 02:02 32.06981 -109.52071 37853 ft 422 kts 269°
2026-05-08 02:02 32.07150 -109.58948 37853 ft 414 kts 269°
2026-05-08 02:03 32.07300 -109.65827 37350 ft 424 kts 269°
2026-05-08 02:03 32.07379 -109.69293 36163 ft 432 kts 269°
2026-05-08 02:03 32.07460 -109.72873 34807 ft 445 kts 269°
2026-05-08 02:04 32.07538 -109.76550 33717 ft 450 kts 269°
2026-05-08 02:04 32.07613 -109.80236 32762 ft 448 kts 270°
2026-05-08 02:04 32.07685 -109.83902 31871 ft 449 kts 272°
2026-05-08 02:04 32.07766 -109.87589 31017 ft 449 kts 272°
2026-05-08 02:05 32.07846 -109.91265 30239 ft 448 kts 274°
2026-05-08 02:05 32.07924 -109.94938 29404 ft 447 kts 274°
2026-05-08 02:05 32.07989 -109.98476 28587 ft 447 kts 273°
2026-05-08 02:05 32.08058 -110.02133 27830 ft 444 kts 273°
2026-05-08 02:06 32.08118 -110.05750 27076 ft 441 kts 273°
2026-05-08 02:06 32.08181 -110.09366 26296 ft 437 kts 272°
2026-05-08 02:06 32.08248 -110.12937 25535 ft 435 kts 272°
2026-05-08 02:06 32.08328 -110.16496 24799 ft 432 kts 272°
2026-05-08 02:07 32.08401 -110.20036 24034 ft 431 kts 272°
2026-05-08 02:07 32.08460 -110.23552 23259 ft 429 kts 271°
2026-05-08 02:07 32.08514 -110.27057 22399 ft 426 kts 271°
2026-05-08 02:07 32.08574 -110.30529 21592 ft 422 kts 272°
2026-05-08 02:08 32.08638 -110.33973 20820 ft 418 kts 272°
2026-05-08 02:08 32.08694 -110.37331 20113 ft 413 kts 272°
2026-05-08 02:08 32.08749 -110.40695 19447 ft 408 kts 272°
2026-05-08 02:08 32.08805 -110.44022 18828 ft 403 kts 272°
2026-05-08 02:09 32.08864 -110.47263 18472 ft 388 kts 272°
2026-05-08 02:09 32.08909 -110.50418 18183 ft 384 kts 272°
2026-05-08 02:09 32.08955 -110.53566 17898 ft 382 kts 272°
2026-05-08 02:09 32.09000 -110.56680 17618 ft 379 kts 272°
2026-05-08 02:10 32.09046 -110.59785 17363 ft 378 kts 272°
2026-05-08 02:10 32.09096 -110.62834 17138 ft 376 kts 272°
2026-05-08 02:10 32.09142 -110.65908 16886 ft 375 kts 272°
2026-05-08 02:10 32.09186 -110.68973 16637 ft 373 kts 272°
2026-05-08 02:11 32.09231 -110.72023 16393 ft 371 kts 272°
2026-05-08 02:11 32.09275 -110.75059 16170 ft 369 kts 272°
2026-05-08 02:11 32.09313 -110.78018 15959 ft 352 kts 272°
2026-05-08 02:11 32.09354 -110.80837 15738 ft 337 kts 272°
2026-05-08 02:12 32.09390 -110.83540 15512 ft 323 kts 272°
2026-05-08 02:12 32.09421 -110.86139 15286 ft 311 kts 272°
2026-05-08 02:12 32.09459 -110.88653 14947 ft 304 kts 272°
2026-05-08 02:12 32.09501 -110.91178 14171 ft 313 kts 272°
2026-05-08 02:13 32.09699 -110.93733 13633 ft 310 kts 286°
2026-05-08 02:13 32.10355 -110.96076 13303 ft 300 kts 291°
2026-05-08 02:13 32.11024 -110.98310 13016 ft 291 kts 291°
2026-05-08 02:13 32.11659 -111.00524 12742 ft 282 kts 290°
2026-05-08 02:14 32.12276 -111.02744 11273 ft 306 kts 290°
2026-05-08 02:14 32.13010 -111.05307 9619 ft 338 kts 291°
2026-05-08 02:14 32.13765 -111.07677 8577 ft 335 kts 299°
2026-05-08 02:14 32.15337 -111.09891 7482 ft 331 kts 325°
2026-05-08 02:15 32.17263 -111.10968 7112 ft 297 kts 349°
2026-05-08 02:15 32.19213 -111.10899 6815 ft 269 kts 17°
2026-05-08 02:15 32.20708 -111.09777 6545 ft 248 kts 48°
2026-05-08 02:15 32.21385 -111.08009 6284 ft 234 kts 82°
2026-05-08 02:16 32.21153 -111.06400 5973 ft 229 kts 115°
2026-05-08 02:16 32.20795 -111.05771 5823 ft 230 kts 128°
2026-05-08 02:16 32.19684 -111.04451 5944 ft 226 kts 132°
2026-05-08 02:16 32.18559 -111.03080 6162 ft 236 kts 130°
2026-05-08 02:17 32.17915 -111.01408 6034 ft 214 kts 82°
2026-05-08 02:17 32.18521 -111.00075 6854 ft 190 kts 34°
2026-05-08 02:17 32.19722 -110.99263 7553 ft 209 kts 18°
2026-05-08 02:17 32.21154 -110.99176 8251 ft 212 kts 348°
2026-05-08 02:18 32.22474 -111.00015 9005 ft 222 kts 322°
2026-05-08 02:18 32.23621 -111.01300 9211 ft 227 kts 319°
2026-05-08 02:18 32.24755 -111.02560 9090 ft 222 kts 319°
2026-05-08 02:18 32.25876 -111.03813 8743 ft 221 kts 319°
2026-05-08 02:19 32.26980 -111.05068 8401 ft 220 kts 318°
2026-05-08 02:19 32.28061 -111.06368 7798 ft 231 kts 315°
2026-05-08 02:19 32.29208 -111.07810 6946 ft 253 kts 315°
2026-05-08 02:19 32.30411 -111.09303 6686 ft 246 kts 315°
2026-05-08 02:20 32.31556 -111.10734 6537 ft 234 kts 315°
2026-05-08 02:20 32.32665 -111.12128 5955 ft 240 kts 315°
2026-05-08 02:20 32.33817 -111.13567 5197 ft 235 kts 316°
2026-05-08 02:20 32.34892 -111.14821 4740 ft 195 kts 319°
2026-05-08 02:21 32.35787 -111.15820 4364 ft 169 kts 318°
2026-05-08 02:21 32.36622 -111.16780 3966 ft 167 kts 317°
2026-05-08 02:21 32.37429 -111.17670 3481 ft 167 kts 319°
2026-05-08 02:21 32.38260 -111.18599 3128 ft 166 kts 315°
2026-05-08 02:22 32.39063 -111.19534 2736 ft 164 kts 317°
2026-05-08 02:22 32.39862 -111.20427 2380 ft 153 kts 315°
2026-05-08 02:22 32.40560 -111.21217 2046 ft 124 kts 314°
2026-05-08 02:22 32.41082 -111.21825 2040 ft 81 kts 317°
2026-05-08 02:23 32.41172 -111.21924 2040 ft 2 kts 316°
2026-05-08 02:23 32.41393 -111.22185 2039 ft 115 kts 313°
2026-05-08 02:23 32.42206 -111.23125 2703 ft 183 kts 318°
2026-05-08 02:23 32.43098 -111.23897 2911 ft 140 kts 329°
2026-05-08 02:24 32.43926 -111.24454 3050 ft 148 kts 332°
2026-05-08 02:24 32.44826 -111.25094 3244 ft 152 kts 321°
2026-05-08 02:24 32.45552 -111.26008 3272 ft 155 kts 310°
2026-05-08 02:24 32.46232 -111.27003 3303 ft 156 kts 310°
2026-05-08 02:25 32.46983 -111.27959 3136 ft 169 kts 314°
2026-05-08 02:25 32.47898 -111.29016 2807 ft 183 kts 316°
2026-05-08 02:25 32.48809 -111.29972 2578 ft 166 kts 316°
2026-05-08 02:25 32.49611 -111.30915 2307 ft 160 kts 311°
2026-05-08 02:26 32.50332 -111.31749 1996 ft 129 kts 313°
2026-05-08 02:26 32.50919 -111.32441 1899 ft 109 kts 315°
2026-05-08 02:26 32.51274 -111.32855 1896 ft 20 kts 313°
2026-05-08 02:26 32.51351 -111.32951 1897 ft 14 kts 310°
2026-05-08 02:27 32.51425 -111.33051 1891 ft 18 kts 314°
2026-05-08 02:27 32.51514 -111.33168 1890 ft 21 kts 305°
2026-05-08 02:27 32.51628 -111.33286 1883 ft 24 kts
2026-05-08 02:27 32.51723 -111.33261 1887 ft 17 kts 59°
2026-05-08 02:28 32.51709 -111.33161 1889 ft 12 kts 129°
2026-05-08 02:28 32.51637 -111.33071 1892 ft 18 kts 134°
2026-05-08 02:28 32.51547 -111.32963 1895 ft 8 kts 136°
2026-05-08 02:28 32.51488 -111.32897 1897 ft 15 kts 135°
2026-05-08 02:29 32.51425 -111.32822 1897 ft 12 kts 135°
2026-05-08 02:29 32.51354 -111.32737 1897 ft 17 kts 134°
2026-05-08 02:29 32.51259 -111.32624 1898 ft 21 kts 136°
2026-05-08 02:29 32.51180 -111.32533 1891 ft 12 kts 134°
2026-05-08 02:30 32.51113 -111.32450 1897 ft 17 kts 134°
2026-05-08 02:30 32.51028 -111.32345 1890 ft 6 kts 140°
2026-05-08 02:30 32.50989 -111.32297 1898 ft 11 kts 133°
2026-05-08 02:30 32.50931 -111.32226 1896 ft 15 kts 134°
2026-05-08 02:31 32.50884 -111.32125 1904 ft 16 kts 65°
2026-05-08 02:31 32.50913 -111.32060 1905 ft 6 kts 51°
2026-05-08 02:31 32.50919 -111.32051 1894 ft 0 kts 50°